Location: Maccacari
(45.1333°N, 11.1333°E)
Time: 00:50:16
(UTC+00:00)

A-11 Canister half - Pass Details

Date: 23 January 2021
Orbit: 1525 x 1684 km, 47.3° (Epoch: 07 March)

Event Time Altitude Azimuth Distance (km) Brightness Sun altitude
Rises 21:03:13 0° 293° (WNW) 4,790 12.2 -50.5°
Reaches altitude 10° 21:06:38 10° 285° (WNW) 3,826 11.5 -51.0°
Enters shadow 21:11:25 27° 261° (W) 2,755 10.4 -51.8°
Maximum altitude 21:15:02 34° 225° (SW) 2,452 - -52.3°
Drops below altitude 10° 21:23:40 10° 165° (SSE) 3,912 - -53.6°
Sets 21:27:13 0° 157° (SSE) 4,910 - -54.1°
